星链-3154 (STARLINK-3154 )

导读

STARLINK-3154是美国SpaceX星链星座的卫星,于2021年11月13日发射升空,属于星链互联网星座组网卫星,主要为全球提供低延迟、高速率的宽带互联网服务。该卫星运行在近地轨道,依托星链密集组网布局,服务覆盖偏远地区、海洋等传统网络难以覆盖区域,支撑卫星互联网全球覆盖目标。

基本信息
目录编号:
49417
目录名称:
STARLINK-3154
国际标识:
2021-104K
轨道中心:
EARTH
卫星名称:
星链-3154
卫星全名:
星链-3154 (STARLINK-3154 )
卫星状态:
在轨 (已飞行1756 天)
发射日期:
2021-11-13 UTC
国别 :
美国 (US)
星等 :
--
轨道信息
数据来源 国际轨道数据 AOE轨道数据
星历时间 2026-09-03T06:22:00+0800
1天前
查看轨道信息
2026-09-01T01:00:00+0800
3天前
查看轨道信息
半长轴 6840.886km 6840.867km
偏心率 0.000115 0.0001574
轨道倾角 53.160° 53.162°
近地点辐角 91.508° 66.542°
升交点赤经 134.195° 144.585°
平近点角 268.606° 243.992°
近地点 461.962km 461.653km
远地点 463.536km 463.807km
周期 93.849分钟 93.848分钟
每日圈数 15.343847 15.343911
详细信息
固有亮度:
5
最大亮度:
2.5
卫星平台:
Starlink v1.5
覆盖范围:
全球
运营商:
太空探索技术公司
运营商所在国:
美国
制造商(研发单位):
太空探索技术公司
制造商所在国:
美国
使用方式:
暂无
卫星简介
星链(Starlink)计划是由太空探索技术公司(SpaceX)提出的一个巨型低轨卫星互联网星座项目,计划在2019年至2024年间在太空搭建由约1.2万颗卫星组成的“星链”网络,其中1584颗将部署在地球上空550千米处的近地轨道,并从2020年开始工作。该卫星仍在工作。
2D轨道图
3D轨道图
轨道高度分析图
轨道倾角分析图
轨道综合分析图
查看轨道综合分析图
交会数据列表
事件ID 空间交会对象 最接近时刻(TCA) 交会距离 交会风险概率(CRP) 交会风险指数(CRI) 操作
CDM_260905-030104-941706-536821
2026-09-05T
03:01:21+0000
1.837 km
极远距离
2.269993E-6 低风险 0.42
CDM_260903-194704-846804-941721
2026-09-03T
19:47:45+0000
1.817 km
极远距离
1.84868E-6 低风险 0.4
CDM_260903-022704-941705-228223
2026-09-03T
02:27:48+0000
2.636 km
极远距离
1.319724E-6 低风险 0.37
CDM_260827-194804-941704-945621
2026-08-27T
19:48:27+0000
2.322 km
极远距离
3.036736E-7 极低风险 0.25